Location: Kelshall
(52.0000°N, 0.0500°W)
Time: 23:08:38
(UTC+00:00)

Cosmos 2278 Rocket - Pass Details

Date: 18 September 2020
Orbit: 841 x 845 km, 71.0° (Epoch: 30 October)

Event Time Altitude Azimuth Distance (km) Brightness Sun altitude
Exits shadow 21:22:00 19° 50° (NE) 1,904 4.0 -27.7°
Drops below altitude 10° 21:23:41 10° 41° (NE) 2,470 4.7 -27.9°
Sets 21:26:15 0° 35° (NE) 3,409 5.5 -28.2°
